This is the latest recevied weather packets stored in our database for station/object K5IDL. If no packets are shown the sender has not sent any weather packets the latest 10 day(s).
| Time | Temp. | Humidity | Pressure | Rain* | Wind** | Luminosity | Snow |
|---|---|---|---|---|---|---|---|
| 1777752517 | 24.44° C | 36% | 1021.2 hPa | 0 mm | - | 46 W/m² | - |
| 1777752213 | 24.44° C | 35% | 1021.3 hPa | 0 mm | - | 45 W/m² | - |
| 1777751911 | 24.44° C | 35% | 1021.1 hPa | 0 mm | - | 103 W/m² | - |
| 1777751608 | 24.44° C | 35% | 1021.4 hPa | 0 mm | - | 45 W/m² | - |
| 1777751305 | 24.44° C | 34% | 1021.3 hPa | 0 mm | - | 65 W/m² | - |
| 1777751001 | 25° C | 34% | 1021.4 hPa | 0 mm | - | 89 W/m² | - |
| 1777750697 | 25° C | 34% | 1021.6 hPa | 0 mm | - | 401 W/m² | - |
| 1777750394 | 25° C | 32% | 1021.7 hPa | 0 mm | - | 240 W/m² | - |
| 1777750089 | 25° C | 34% | 1021.7 hPa | 0 mm | - | 358 W/m² | - |
| 1777749787 | 25.56° C | 34% | 1021.8 hPa | 0 mm | - | 436 W/m² | - |
| 1777749484 | 25° C | 33% | 1021.7 hPa | 0 mm | - | 708 W/m² | - |
| 1777749182 | 25.56° C | 32% | 1021.9 hPa | 0 mm | - | 714 W/m² | - |
| 1777748879 | 25° C | 34% | 1021.7 hPa | 0 mm | - | 717 W/m² | - |
| 1777748576 | 25° C | 33% | 1022.2 hPa | 0 mm | - | 723 W/m² | - |
| 1777748271 | 25° C | 33% | 1022.1 hPa | 0 mm | - | 715 W/m² | - |
| 1777747968 | 25° C | 32% | 1021.9 hPa | 0 mm | - | 348 W/m² | - |
| 1777747664 | 25° C | 33% | 1022.1 hPa | 0 mm | - | 728 W/m² | - |
| 1777747359 | 24.44° C | 32% | 1022.3 hPa | 0 mm | - | 731 W/m² | - |
| 1777747056 | 23.89° C | 34% | 1022.3 hPa | 0 mm | - | 733 W/m² | - |
| 1777746747 | 25° C | 32% | 1022.3 hPa | 0 mm | - | 733 W/m² | - |
| 1777746442 | 24.44° C | 32% | 1022.4 hPa | 0 mm | - | 734 W/m² | - |
| 1777746138 | 24.44° C | 33% | 1022.2 hPa | 0 mm | - | 736 W/m² | - |
| 1777745835 | 25° C | 34% | 1022.3 hPa | 0 mm | - | 736 W/m² | - |
| 1777745534 | 25.56° C | 32% | 1022.5 hPa | 0 mm | - | 736 W/m² | - |
| 1777745230 | 25.56° C | 33% | 1022.7 hPa | 0 mm | - | 738 W/m² | - |
* Rain latest hour (hover to see other rain measurements)
** Current wind speed in m/s (hover to see current wind gust speed)